Theta_e
321 316 313 312 311 310 310 311 311 313 311 312 314 313 314 316 317 316 313 313 313 315 313 314 315 315 315 318 318 316 318 319 315 317 315 313 315 311 310 309 307 307 305 305 304
321 319 315 314 312 311 312 313 313 314 312 312 314 314 316 317 317 314 312 314 312 313 313 313 312 314 314 317 317 316 318 318 315 314 314 313 313 313 311 311 306 305 304 304 303
319 321 317 315 314 312 313 314 314 315 313 312 315 314 314 313 319 314 314 313 312 313 313 312 313 314 318 317 316 317 316 316 315 313 313 313 313 310 309 311 308 305 303 301 301
316 321 319 317 316 314 314 315 316 316 314 313 315 314 314 314 320 313 315 312 312 314 314 315 313 315 316 318 316 315 315 316 315 312 312 312 311 312 310 308 304 302 302 300 298
314 319 321 318 317 316 315 316 317 318 315 313 316 314 315 319 315 313 314 312 311 314 314 313 313 313 316 315 315 315 316 314 314 312 311 311 312 311 306 304 303 302 301 298 297
312 316 320 319 317 317 316 317 318 319 316 314 315 315 318 318 313 315 312 313 311 312 313 312 312 313 313 316 315 315 314 313 313 312 311 312 311 311 306 303 303 302 299 297 297
312 314 319 319 318 317 317 318 319 320 315 314 315 317 318 317 313 313 312 312 310 310 313 310 310 313 313 315 313 312 313 312 312 311 311 311 311 310 306 304 303 301 299 298 298
311 312 316 319 318 317 317 318 319 318 313 315 315 318 318 313 314 313 312 313 311 311 311 310 310 311 312 311 313 313 313 315 313 311 311 309 309 311 305 304 302 299 298 299 298
310 312 314 318 316 316 317 317 319 317 313 315 318 317 318 314 316 315 312 311 310 311 310 309 310 313 312 314 310 314 313 310 312 311 311 310 309 309 306 303 300 297 296 296 294
311 312 314 317 314 314 315 318 318 316 316 316 316 318 314 317 316 314 312 310 311 311 312 312 311 311 310 308 312 309 308 309 311 312 309 309 309 309 307 303 299 295 294 294 293
310 312 314 317 312 312 313 317 311 314 312 316 315 316 316 316 314 314 311 311 312 312 316 315 314 315 314 310 310 310 310 309 309 310 310 308 308 308 305 302 296 294 293 293 292
309 314 314 317 310 310 310 310 309 311 310 312 313 314 315 314 313 312 310 311 313 315 314 312 315 313 310 309 311 311 310 309 308 308 308 307 307 306 305 303 297 295 293 292 292
310 316 316 317 311 308 308 306 309 312 312 313 314 315 315 312 313 312 309 311 314 316 315 314 316 310 309 310 311 309 307 307 309 307 305 305 303 305 301 299 296 295 293 291 291
314 317 318 316 311 308 312 306 310 310 311 314 312 315 310 310 312 309 308 310 314 317 312 310 309 309 310 310 310 307 306 306 306 305 305 303 304 302 300 298 296 295 290 290 290
313 318 318 315 304 310 308 306 307 311 310 312 315 310 310 311 311 312 308 309 314 315 313 316 307 307 308 307 308 307 305 304 304 304 303 303 302 301 300 299 297 292 290 290 289
314 316 318 315 305 309 305 308 310 314 315 317 314 314 312 311 311 311 310 307 308 307 307 310 306 306 306 308 308 306 306 304 303 301 303 302 302 302 299 301 296 291 290 290 290
314 315 317 317 307 306 305 311 311 315 313 316 316 314 314 314 312 311 312 311 315 317 315 310 307 306 307 307 307 306 303 307 307 305 308 300 301 305 299 299 296 291 290 289 289
314 315 316 316 315 306 311 309 316 313 317 314 314 313 314 313 314 311 310 312 309 311 310 312 314 307 305 306 306 306 302 306 306 308 311 300 304 302 296 293 291 291 290 289 289
313 315 316 315 315 308 303 309 314 314 314 315 313 315 315 313 314 310 308 309 310 308 313 311 310 300 298 301 302 303 302 300 303 288 295 299 298 297 294 293 291 290 290 288 289
313 314 313 314 313 308 302 312 312 312 313 314 318 315 316 315 312 309 311 310 311 307 307 307 310 301 296 298 297 300 299 301 301 308 300 300 301 303 294 293 291 290 289 289 290
312 312 312 313 307 305 304 305 309 311 313 313 313 316 316 315 311 311 313 312 307 302 303 304 304 304 297 297 299 295 297 296 298 303 306 302 306 296 295 294 290 290 290 289 289
312 312 309 307 307 302 309 306 309 310 310 311 311 313 313 314 315 314 314 314 302 301 304 302 302 302 301 296 295 295 298 299 302 304 299 300 303 295 295 293 291 290 290 289 289
311 309 308 309 312 311 309 310 309 311 310 310 310 311 312 313 315 314 314 303 301 302 301 299 301 301 308 295 293 294 293 295 296 297 301 302 303 294 294 292 291 289 289 289 288
307 310 309 309 308 309 311 312 312 309 310 309 309 310 311 311 312 313 311 301 300 300 301 300 300 309 316 314 299 299 293 294 296 299 302 301 302 296 293 292 290 289 288 287 287
308 310 308 310 310 310 310 311 311 312 308 309 310 310 311 312 310 311 310 298 297 300 297 298 301 299 302 301 300 301 301 297 296 298 301 303 301 300 299 297 294 288 288 288 287
312 307 305 306 307 308 311 311 311 310 311 310 310 309 310 311 311 311 311 308 306 296 295 295 301 302 304 302 302 303 301 298 298 298 298 298 298 298 298 292 288 288 288 288 287
313 309 309 309 308 309 310 310 311 310 310 311 310 311 310 309 308 307 306 305 306 299 297 299 299 301 308 302 299 301 300 300 300 299 298 297 298 298 296 291 289 288 288 287 285
Wind_Speed
22 24 26 27 28 28 28 28 28 29 23 17 18 6 6 7 8 9 8 10 11 9 8 11 3 5 2 1 1 3 4 2 5 3 4 5 3 6 6 12 7 6 5 10 20
22 23 25 27 27 28 28 28 28 29 22 17 17 5 8 4 4 13 10 12 11 9 6 10 6 9 2 2 2 4 3 1 2 2 3 2 4 0 5 5 7 9 11 23 27
22 23 24 26 27 27 27 27 28 29 22 17 15 5 7 1 2 2 12 11 10 8 7 8 8 2 2 1 1 1 3 1 3 4 3 3 2 5 9 3 0 10 8 13 24
21 23 24 25 27 27 27 27 27 29 22 18 14 5 5 3 1 2 8 8 8 8 7 6 4 2 2 2 2 1 3 2 2 4 4 2 3 3 5 5 10 11 12 16 13
19 21 23 25 26 26 26 26 27 28 21 17 11 4 3 2 3 3 5 5 6 5 8 4 5 4 2 3 0 4 3 0 2 6 3 1 1 4 7 9 11 15 15 12 12
18 19 22 24 25 26 26 25 26 27 20 14 6 3 2 0 3 3 5 1 7 7 6 7 2 1 4 3 2 1 3 4 1 5 4 3 2 4 6 9 11 14 11 10 12
17 19 20 22 24 25 26 24 26 26 16 10 2 1 2 2 3 3 5 3 7 6 2 2 1 2 4 5 2 1 2 4 4 5 4 2 1 7 12 8 13 11 10 9 11
15 18 20 21 23 25 25 25 27 18 9 6 1 1 1 4 3 3 5 1 4 4 2 2 2 1 1 5 4 2 3 2 4 8 4 4 6 6 15 16 10 10 9 9 7
15 16 18 20 22 24 24 25 22 15 2 4 1 1 2 3 2 2 4 1 6 2 0 1 2 1 3 2 4 4 3 3 2 8 4 4 7 8 10 14 11 9 9 9 7
15 16 17 18 20 22 23 24 14 4 4 1 1 2 2 3 2 3 2 3 2 1 2 1 2 3 4 3 3 4 4 5 5 3 7 7 9 7 6 15 13 9 8 7 8
13 15 16 17 19 19 21 9 9 5 8 5 5 3 1 4 4 3 2 2 1 2 3 4 3 4 5 2 2 4 5 7 6 4 5 7 8 10 7 8 11 9 9 8 8
13 14 14 15 16 13 10 7 3 1 8 6 2 3 4 1 2 2 4 2 2 1 3 6 5 5 5 4 5 6 7 8 9 3 1 7 11 11 11 7 16 13 9 8 6
14 12 14 14 11 7 9 6 2 1 3 4 3 2 2 4 2 3 3 1 2 3 2 5 5 4 4 3 4 5 6 5 7 5 6 8 8 5 1 6 9 7 7 7 8
15 9 13 13 0 5 3 5 2 2 4 6 2 2 2 2 1 1 2 1 2 2 2 5 3 3 2 5 6 6 3 2 6 5 4 2 9 2 6 8 9 9 8 7 7
11 6 9 8 6 1 1 3 2 2 5 4 2 2 1 3 1 1 1 1 3 4 5 9 4 6 4 5 5 5 1 5 5 9 4 6 5 6 10 9 11 7 8 7 7
10 7 6 4 4 1 3 1 1 5 7 3 4 3 1 2 3 2 1 1 2 1 3 7 3 5 7 3 3 2 3 5 4 2 4 9 11 4 7 16 10 6 7 8 7
11 10 8 5 2 1 0 1 4 4 4 5 4 4 4 5 4 5 3 2 2 6 4 4 5 2 3 2 3 2 3 4 5 2 7 0 2 14 7 8 17 13 9 8 7
13 12 11 9 6 4 2 4 6 7 7 2 3 3 6 8 5 4 4 3 5 4 2 3 6 6 4 4 6 5 6 4 7 4 9 7 7 5 3 10 12 10 9 7 6
14 13 14 14 12 9 4 4 10 8 6 8 2 4 5 4 3 4 7 6 7 9 8 3 5 2 5 1 2 3 4 1 2 2 2 4 6 3 4 9 8 9 8 8 7
13 8 13 10 12 8 3 13 8 8 5 4 9 8 8 6 6 6 7 5 5 6 3 3 8 0 2 2 2 2 4 3 1 4 7 6 8 8 12 14 8 8 8 7 4
10 3 7 23 19 2 7 9 10 9 5 8 9 7 7 7 9 7 7 4 7 4 5 5 5 2 4 7 9 2 3 3 2 4 5 2 8 5 16 16 12 9 8 8 5
6 4 15 25 3 4 11 8 5 7 16 15 6 9 11 6 6 8 11 10 9 9 9 7 5 5 11 2 2 2 9 11 5 6 4 5 17 5 12 13 11 9 8 7 6
3 4 16 10 7 9 4 8 13 6 10 7 9 10 8 8 6 11 12 2 9 10 10 8 4 2 7 4 3 6 5 4 3 1 19 10 10 2 7 9 8 10 7 6 5
3 3 3 5 5 6 11 14 12 9 20 7 7 8 5 7 9 5 7 2 2 3 8 8 5 9 19 20 4 8 8 8 13 8 22 27 35 11 7 11 10 8 8 7 6
5 7 8 7 13 18 11 6 20 12 8 18 10 20 15 10 8 14 6 2 1 7 6 7 11 8 19 11 5 21 16 16 20 28 18 38 24 29 20 15 11 9 7 5 1
8 5 3 3 7 23 27 26 25 8 13 17 20 14 25 26 19 9 13 8 9 4 7 4 6 4 16 8 15 28 19 20 28 31 29 32 39 27 21 4 7 8 5 4 2
19 6 8 9 11 13 22 28 28 23 13 13 23 20 18 18 14 9 4 2 6 13 13 9 5 3 15 1 7 15 24 30 23 25 25 26 35 25 14 8 8 7 5 4 3
Wind_Direction
15 15 14 14 13 11 10 12 11 12 11 16 17 49 80 84 67 59 45 346 339 347 342 338 325 309 263 282 101 77 64 315 335 73 121 354 90 335 44 83 35 53 98 117 80
9 9 10 10 9 9 7 6 7 7 10 10 10 51 135 85 38 53 9 4 9 9 16 8 351 351 353 153 4 79 97 251 75 24 116 104 87 151 87 87 92 95 79 83 71
4 4 5 5 5 6 4 2 2 5 6 3 4 43 192 308 51 359 0 7 14 12 352 312 297 282 317 116 188 59 186 250 81 125 75 29 36 315 128 74 217 143 133 88 76
1 1 0 1 1 2 1 357 357 360 358 357 2 53 111 134 183 318 356 10 28 33 10 6 352 32 310 253 160 84 278 79 19 54 58 64 310 81 92 147 143 126 116 96 79
357 357 356 356 357 357 357 353 351 353 352 351 359 111 116 57 180 317 346 13 28 55 41 16 37 359 291 329 331 175 228 302 94 79 85 99 261 158 133 149 124 109 97 94 88
349 353 352 351 353 352 352 349 345 343 344 346 359 123 127 284 162 348 353 5 33 48 45 37 46 330 290 280 139 318 316 277 157 161 159 148 229 144 170 147 106 104 102 97 96
342 345 349 348 348 348 346 344 339 334 340 339 348 100 117 210 168 30 9 38 31 44 88 76 355 92 331 318 13 76 319 41 189 186 218 159 209 223 152 134 124 125 128 121 113
336 340 344 345 345 345 342 339 332 331 340 333 7 119 215 153 169 12 6 331 9 351 60 77 57 95 155 316 337 323 143 125 232 161 236 133 259 208 149 141 144 142 141 136 132
329 337 340 343 344 343 341 337 326 326 299 341 235 150 264 151 188 302 352 305 306 262 64 77 71 103 35 49 355 0 286 287 329 205 150 169 242 231 154 145 151 154 148 136 126
327 331 338 340 342 344 342 336 325 358 354 327 262 32 148 182 238 275 282 316 297 323 45 340 63 57 18 77 250 275 298 292 261 241 192 198 241 259 186 155 166 156 139 126 104
320 325 333 337 341 347 350 353 13 346 22 236 261 243 59 309 279 214 286 319 189 21 12 285 37 259 202 169 214 245 261 252 264 254 218 234 245 244 209 153 156 165 151 141 123
311 319 327 334 340 352 20 73 122 278 303 301 230 302 261 193 314 239 328 171 117 180 347 12 252 196 173 215 221 229 259 267 285 155 280 261 256 253 196 183 167 162 157 139 110
309 315 329 333 337 2 55 73 107 82 305 303 209 233 203 161 239 210 338 115 181 146 152 165 228 175 179 209 230 242 231 258 256 332 294 284 276 203 289 120 142 153 130 120 126
295 313 337 336 135 359 58 15 83 124 42 271 221 229 168 176 290 22 14 108 244 226 188 232 219 175 197 245 177 264 179 217 285 355 241 68 291 257 194 147 166 164 139 137 120
282 312 338 348 324 29 18 2 67 118 359 258 193 161 127 160 124 216 11 42 204 201 103 254 207 210 217 231 158 243 53 247 249 249 357 227 241 271 167 199 191 162 156 143 134
267 286 318 310 304 261 312 329 117 53 248 231 147 184 139 194 204 133 31 85 157 263 237 242 11 176 200 148 189 24 303 264 212 165 259 226 193 228 187 217 166 161 154 142 131
253 269 285 283 219 166 278 49 41 163 278 210 204 173 194 199 212 179 172 197 199 334 298 339 216 104 129 131 19 85 50 319 337 329 239 37 278 246 203 187 169 159 160 150 135
242 252 265 254 248 238 161 61 192 222 238 114 145 151 192 167 221 154 134 252 239 164 330 239 299 170 172 183 189 192 168 170 259 240 287 324 250 239 189 121 126 140 143 139 145
229 247 248 256 228 200 97 193 196 198 215 162 86 187 233 218 206 153 208 209 216 169 186 245 256 63 39 11 148 177 184 159 298 101 7 239 288 321 122 143 138 142 146 162 167
216 230 230 228 194 156 111 226 216 210 142 154 188 183 203 202 178 183 191 202 212 184 130 193 291 84 154 48 337 207 162 83 102 289 276 268 256 230 187 195 175 165 159 162 143
211 256 215 197 163 110 206 222 223 241 153 175 205 226 219 192 193 199 220 255 174 117 115 148 173 201 121 199 187 158 222 230 195 172 236 293 257 234 190 188 180 181 166 161 159
194 230 172 160 159 206 222 193 230 206 230 242 200 219 234 181 248 232 218 205 162 150 160 202 169 235 227 216 272 198 200 187 203 219 243 254 268 184 186 179 166 170 167 167 170
215 194 176 198 210 219 248 220 233 175 207 203 218 215 199 201 246 226 221 140 157 152 171 181 207 337 297 15 335 226 200 213 307 32 242 243 263 136 165 158 171 161 170 168 174
151 209 170 214 233 210 220 239 226 210 228 214 216 179 173 227 224 256 191 216 162 112 147 150 196 202 255 270 131 237 184 203 215 243 254 239 258 229 198 172 169 179 170 171 186
190 223 186 200 217 225 215 221 219 219 217 201 238 220 210 234 189 228 206 132 301 169 165 167 241 193 256 277 266 261 255 227 223 237 234 261 246 258 253 246 220 173 162 153 92
193 168 185 207 183 204 220 231 233 217 199 217 224 205 219 229 220 215 217 192 203 169 160 182 252 169 270 237 253 264 254 245 243 245 244 252 264 257 274 158 152 151 153 118 91
206 202 197 209 199 195 215 224 227 216 249 230 215 228 227 225 227 240 172 190 200 165 182 166 186 143 261 112 323 274 231 231 243 238 230 244 249 274 258 175 161 158 125 124 52